Weather History for Cancun, Mexico

Change the Weather History Date:

Saturday, November 2, 2013

  Actual Average Record
Temperature  
Mean Temperature 78 °F -  
Max Temperature 87 °F 84 °F 91 °F (2004)
Min Temperature 69 °F 70 °F 59 °F (2012)
Cooling Degree Days 13    
Growing Degree Days 28 (Base 50)    
Moisture  
Dew Point 73 °F    
Average Humidity 89    
Maximum Humidity 100    
Minimum Humidity 66    
Precipitation  
Precipitation 0.00 in - - ()
Sea Level Pressure  
Sea Level Pressure 29.90 in    
Wind  
Wind Speed 4 mph ()    
Max Wind Speed 17 mph    
Max Gust Speed -    
Visibility 6.3 miles    
Events Rain    
Averages and records for this station are not official NWS values.
T = Trace of Precipitation, MM = Missing Value Source: Averaged Metar Reports

Daily Weather History Graph

Daily Weather History Graph

Search for Another Location

Airport:

Trip Planner

Search our weather history database for the weather conditions in past years. The results will help you decide how hot, cold, wet, or windy it might be!

Date:

Astronomy

Nov. 02, 2013 Rise Set
Actual Time 5:50 AM CST 5:11 PM CST
Civil Twilight 5:27 AM CST 5:33 PM CST
Nautical Twilight 5:01 AM CST 6:00 PM CST
Astronomical Twilight 4:35 AM CST 6:26 PM CST
Moon 4:53 AM CST (11/2) 4:39 PM CST (11/2)
Length of Visible Light 12h 06m
Length of Day
11h 20m
Waning Crescent, 1% of the Moon is Illuminated
Nov 2
Waning Crescent
Nov 3
New
Nov 9
First Quarter
Nov 17
Full
Nov 25
Last Quarter

Hourly Weather History & Observations

Time (CST) Temp. Heat Index Dew Point Humidity Pressure Visibility Wind Dir Wind Speed Gust Speed Precip Events Conditions
12:45 AM 75.2 °F - 75.2 °F 100% 29.89 in 7.0 mi Calm Calm - N/A   Mostly Cloudy
1:45 AM 75.2 °F - 75.2 °F 100% 29.88 in 7.0 mi Calm Calm - N/A   Mostly Cloudy
2:46 AM 75.2 °F - 73.4 °F 94% 29.85 in 7.0 mi Calm Calm - N/A   Mostly Cloudy
3:45 AM 73.4 °F - 73.4 °F 100% 29.87 in 7.0 mi Calm Calm - N/A   Scattered Clouds
4:44 AM 73.4 °F - 71.6 °F 94% 29.87 in 7.0 mi NW 5.8 mph - N/A   Scattered Clouds
5:44 AM 73.4 °F - 71.6 °F 94% 29.88 in 7.0 mi Calm Calm - N/A   Scattered Clouds
6:45 AM 75.2 °F - 73.4 °F 94% 29.90 in 7.0 mi NNW 5.8 mph - N/A   Scattered Clouds
7:48 AM 80.6 °F 88.1 °F 78.8 °F 94% 29.92 in 7.0 mi Calm Calm - N/A   Scattered Clouds
8:42 AM 86.0 °F 96.9 °F 77.0 °F 74% 29.94 in 7.0 mi SE 8.1 mph - N/A   Mostly Cloudy
9:42 AM 86.0 °F 95.1 °F 75.2 °F 70% 29.93 in 7.0 mi SSE 6.9 mph - N/A   Mostly Cloudy
10:44 AM 87.8 °F 97.6 °F 75.2 °F 66% 29.92 in 7.0 mi South 9.2 mph - N/A   Mostly Cloudy
11:44 AM 86.0 °F 96.9 °F 77.0 °F 74% 29.90 in 7.0 mi ESE 6.9 mph - N/A   Mostly Cloudy
12:41 PM 86.0 °F 95.1 °F 75.2 °F 70% 29.88 in 7.0 mi SE 11.5 mph - N/A   Mostly Cloudy
1:44 PM 86.0 °F 95.1 °F 75.2 °F 70% 29.85 in 7.0 mi SSE 10.4 mph - N/A   Mostly Cloudy
2:41 PM 71.6 °F - 68.0 °F 88% 29.88 in 5.0 mi NNW 17.3 mph - N/A Rain Light Rain
2:51 PM 69.8 °F - 68.0 °F 94% 29.88 in 2.0 mi West 6.9 mph - N/A Rain Light Rain
3:05 PM 71.6 °F - 68.0 °F 88% 29.88 in 5.0 mi NNW 12.7 mph - N/A Rain Light Rain
3:43 PM 73.4 °F - 71.6 °F 94% 29.86 in 6.0 mi South 2.3 mph - N/A   Overcast
4:41 PM 75.2 °F - 69.8 °F 83% 29.87 in 6.0 mi WNW 6.9 mph - N/A   Overcast
5:46 PM 73.4 °F - 71.6 °F 94% 29.92 in 6.0 mi NNW 9.2 mph - N/A   Overcast
6:43 PM 73.4 °F - 71.6 °F 94% 29.92 in 6.0 mi NNW 5.8 mph - N/A   Overcast
7:43 PM 75.2 °F - 73.4 °F 94% 29.92 in 6.0 mi North 6.9 mph - N/A   Overcast
8:41 PM 75.2 °F - 73.4 °F 94% 29.94 in 6.0 mi North 3.5 mph - N/A   Overcast
9:45 PM 75.2 °F - 73.4 °F 94% 29.94 in 6.0 mi Calm Calm - N/A   Overcast
10:40 PM 73.4 °F - 73.4 °F 100% 29.93 in 6.0 mi Calm Calm - N/A   Overcast
11:46 PM 73.4 °F - 73.4 °F 100% 29.91 in 6.0 mi Calm Calm - N/A   Overcast